�������l�o���
Date,Time,MP-1(��Sv/h),MP-2(��Sv/h),MP-3(��Sv/h),MP-4(��Sv/h),MP-5(��Sv/h),MP-6(��Sv/h),MP-7(��Sv/h),MP-8(��Sv/h),����,����(m/s),���J
2023/03/09,00:00,0.579,0.844,0.510,1.071,0.748,0.328,0.591,0.558,�쐼,5.9,��
2023/03/09,00:10,0.580,0.845,0.510,1.071,0.745,0.327,0.592,0.559,�쐼,4.8,��
2023/03/09,00:20,0.579,0.845,0.510,1.071,0.745,0.329,0.591,0.558,�쐼,4.5,��
2023/03/09,00:30,0.581,0.846,0.510,1.071,0.746,0.329,0.591,0.559,��쐼,4.9,��
2023/03/09,00:40,0.582,0.844,0.509,1.072,0.746,0.329,0.590,0.557,��쐼,5.3,��
2023/03/09,00:50,0.580,0.846,0.511,1.072,0.748,0.328,0.591,0.559,��쐼,6.4,��
2023/03/09,01:00,0.580,0.845,0.509,1.072,0.747,0.329,0.592,0.557,��쐼,5.2,��
2023/03/09,01:10,0.582,0.844,0.511,1.071,0.746,0.329,0.595,0.559,��,4.7,��
2023/03/09,01:20,0.581,0.844,0.512,1.074,0.747,0.328,0.591,0.559,��,3.9,��
2023/03/09,01:30,0.580,0.846,0.510,1.071,0.746,0.330,0.591,0.558,��쓌,1.9,��
2023/03/09,01:40,0.582,0.845,0.510,1.072,0.746,0.329,0.592,0.558,��쓌,1.8,��
2023/03/09,01:50,0.581,0.845,0.511,1.071,0.749,0.328,0.591,0.559,��쐼,1.8,��
2023/03/09,02:00,0.582,0.845,0.510,1.071,0.745,0.329,0.591,0.557,��,1.4,��
2023/03/09,02:10,0.581,0.845,0.510,1.073,0.747,0.329,0.590,0.560,���k��,1.5,��
2023/03/09,02:20,0.582,0.844,0.510,1.071,0.748,0.328,0.591,0.559,���쓌,3.3,��
2023/03/09,02:30,0.581,0.847,0.510,1.070,0.747,0.328,0.591,0.559,���쓌,3.0,��
2023/03/09,02:40,0.580,0.845,0.511,1.071,0.746,0.329,0.592,0.559,�쓌,2.0,��
2023/03/09,02:50,0.580,0.846,0.510,1.073,0.747,0.328,0.592,0.560,��쓌,1.7,��
2023/03/09,03:00,0.579,0.843,0.509,1.071,0.747,0.328,0.590,0.558,�쓌,1.8,��
2023/03/09,03:10,0.578,0.844,0.510,1.072,0.746,0.329,0.591,0.558,��쓌,2.0,��
2023/03/09,03:20,0.580,0.846,0.511,1.072,0.745,0.329,0.590,0.558,��쓌,1.4,��
2023/03/09,03:30,0.580,0.845,0.510,1.072,0.744,0.328,0.591,0.558,�쓌,1.9,��
2023/03/09,03:40,0.579,0.846,0.509,1.072,0.747,0.329,0.592,0.558,�쓌,1.7,��
2023/03/09,03:50,0.581,0.845,0.510,1.072,0.746,0.328,0.590,0.557,�쓌,2.3,��
2023/03/09,04:00,0.578,0.845,0.511,1.073,0.746,0.327,0.590,0.560,��쓌,2.3,��
2023/03/09,04:10,0.580,0.845,0.510,1.070,0.746,0.326,0.592,0.559,��쓌,3.6,��
2023/03/09,04:20,0.579,0.843,0.509,1.069,0.745,0.326,0.592,0.558,��쓌,3.7,��
2023/03/09,04:30,0.578,0.845,0.510,1.072,0.746,0.327,0.588,0.559,��,3.0,��
2023/03/09,04:40,0.580,0.843,0.508,1.069,0.745,0.328,0.590,0.558,��쓌,3.3,��
2023/03/09,04:50,0.579,0.843,0.511,1.071,0.746,0.326,0.591,0.558,��,3.1,��
2023/03/09,05:00,0.578,0.845,0.510,1.069,0.746,0.327,0.590,0.558,��,3.7,��
2023/03/09,05:10,0.578,0.845,0.510,1.068,0.747,0.326,0.589,0.558,��,4.2,��
2023/03/09,05:20,0.579,0.846,0.509,1.070,0.745,0.325,0.591,0.559,��,4.1,��
2023/03/09,05:30,0.578,0.843,0.509,1.070,0.746,0.325,0.590,0.559,��,3.6,��
2023/03/09,05:40,0.579,0.842,0.508,1.071,0.745,0.325,0.590,0.558,��,4.3,��
2023/03/09,05:50,0.579,0.843,0.508,1.070,0.745,0.326,0.590,0.559,��,3.9,��
2023/03/09,06:00,0.578,0.844,0.507,1.069,0.747,0.326,0.590,0.556,��,3.6,��
2023/03/09,06:10,0.580,0.843,0.508,1.069,0.745,0.328,0.590,0.557,��쐼,3.4,��
2023/03/09,06:20,0.579,0.843,0.507,1.069,0.746,0.327,0.588,0.557,��,3.4,��
2023/03/09,06:30,0.579,0.841,0.509,1.071,0.747,0.329,0.592,0.557,��쐼,3.9,��
2023/03/09,06:40,0.579,0.846,0.508,1.071,0.747,0.329,0.590,0.559,��쐼,4.3,��
2023/03/09,06:50,0.579,0.844,0.510,1.072,0.746,0.329,0.591,0.557,��쐼,4.4,��
2023/03/09,07:00,0.579,0.843,0.511,1.072,0.746,0.328,0.592,0.558,��,5.0,��
2023/03/09,07:10,0.578,0.845,0.511,1.072,0.746,0.327,0.591,0.557,��,4.2,��
2023/03/09,07:20,0.579,0.842,0.509,1.069,0.744,0.328,0.590,0.558,��,4.3,��
2023/03/09,07:30,0.579,0.844,0.508,1.070,0.745,0.327,0.591,0.558,��,4.6,��
2023/03/09,07:40,0.580,0.846,0.510,1.070,0.745,0.327,0.593,0.559,��,3.9,��
2023/03/09,07:50,0.580,0.844,0.511,1.069,0.744,0.329,0.591,0.560,��,3.3,��
2023/03/09,08:00,0.580,0.845,0.508,1.071,0.745,0.328,0.591,0.559,��쐼,4.0,��
2023/03/09,08:10,0.580,0.844,0.511,1.072,0.748,0.329,0.591,0.560,��,3.8,��
2023/03/09,08:20,0.581,0.844,0.509,1.071,0.745,0.328,0.592,0.559,��,3.4,��
2023/03/09,08:30,0.580,0.843,0.508,1.071,0.747,0.328,0.592,0.560,��쓌,3.5,��
2023/03/09,08:40,0.580,0.842,0.511,1.070,0.748,0.330,0.590,0.560,��쓌,3.8,��
2023/03/09,08:50,0.582,0.843,0.509,1.070,0.744,0.327,0.590,0.560,��쓌,2.6,��
2023/03/09,09:00,0.582,0.842,0.509,1.070,0.747,0.329,0.591,0.559,��쓌,3.5,��
2023/03/09,09:10,0.581,0.840,0.508,1.070,0.746,0.328,0.590,0.559,��쓌,3.8,��
2023/03/09,09:20,0.580,0.841,0.511,1.071,0.746,0.329,0.591,0.559,��쓌,2.6,��
2023/03/09,09:30,0.580,0.841,0.511,1.071,0.749,0.329,0.589,0.557,��,2.5,��
2023/03/09,09:40,0.580,0.839,0.509,1.070,0.748,0.328,0.590,0.559,��,1.4,��
2023/03/09,09:50,0.580,0.842,0.511,1.072,0.747,0.328,0.589,0.560,��쓌,1.8,��
2023/03/09,10:00,0.579,0.841,0.511,1.072,0.746,0.327,0.591,0.558,�쓌,2.3,��
2023/03/09,10:10,0.577,0.839,0.511,1.072,0.748,0.327,0.590,0.557,��쓌,3.8,��
2023/03/09,10:20,0.579,0.846,0.508,1.071,0.745,0.326,0.589,0.557,��쓌,4.5,��
2023/03/09,10:30,0.578,0.842,0.509,1.073,0.747,0.327,0.589,0.557,��쓌,5.5,��
2023/03/09,10:40,0.579,0.844,0.508,1.072,0.745,0.326,0.589,0.557,��쓌,5.9,��
2023/03/09,10:50,0.578,0.842,0.509,1.074,0.744,0.326,0.591,0.556,��쓌,7.9,��
2023/03/09,11:00,0.575,0.843,0.507,1.074,0.744,0.327,0.590,0.555,��쓌,8.1,��
2023/03/09,11:10,0.574,0.844,0.507,1.069,0.744,0.327,0.590,0.556,��쓌,7.2,��
2023/03/09,11:20,0.574,0.845,0.506,1.071,0.745,0.324,0.589,0.556,��쓌,7.1,��
2023/03/09,11:30,0.576,0.839,0.509,1.072,0.744,0.324,0.590,0.556,��쓌,7.7,��
2023/03/09,11:40,0.580,0.842,0.508,1.072,0.745,0.326,0.592,0.556,��쓌,7.6,��
2023/03/09,11:50,0.581,0.842,0.509,1.072,0.744,0.326,0.590,0.556,��쓌,6.9,��
2023/03/09,12:00,0.578,0.843,0.508,1.072,0.745,0.327,0.590,0.556,��쓌,6.5,��
2023/03/09,12:10,0.578,0.843,0.508,1.071,0.745,0.328,0.591,0.556,��쓌,5.6,��
2023/03/09,12:20,0.579,0.838,0.508,1.070,0.747,0.327,0.590,0.555,��쓌,5.3,��
2023/03/09,12:30,0.580,0.841,0.507,1.073,0.746,0.328,0.589,0.556,��,1.8,��
2023/03/09,12:40,0.580,0.845,0.508,1.072,0.747,0.328,0.590,0.556,��,2.8,��
2023/03/09,12:50,0.579,0.846,0.510,1.073,0.744,0.327,0.589,0.557,���k��,2.8,��
2023/03/09,13:00,0.580,0.846,0.509,1.074,0.746,0.326,0.591,0.557,��,2.9,��
2023/03/09,13:10,0.579,0.846,0.508,1.071,0.746,0.326,0.593,0.556,���k��,2.8,��
2023/03/09,13:20,0.581,0.846,0.508,1.072,0.745,0.326,0.591,0.557,�k��,3.0,��
2023/03/09,13:30,0.577,0.846,0.508,1.071,0.749,0.327,0.590,0.556,���k��,2.6,��
2023/03/09,13:40,0.577,0.845,0.508,1.073,0.745,0.327,0.589,0.557,��,2.4,��
2023/03/09,13:50,0.576,0.846,0.509,1.071,0.746,0.327,0.590,0.555,��,2.0,��
2023/03/09,14:00,0.576,0.846,0.509,1.071,0.746,0.327,0.589,0.556,��,1.9,��
2023/03/09,14:10,0.578,0.848,0.509,1.071,0.747,0.326,0.589,0.557,��,3.2,��
2023/03/09,14:20,0.577,0.846,0.507,1.071,0.746,0.327,0.591,0.556,��,3.5,��
2023/03/09,14:30,0.579,0.844,0.508,1.071,0.747,0.327,0.590,0.557,���쓌,3.4,��
2023/03/09,14:40,0.580,0.829,0.507,1.073,0.745,0.327,0.590,0.557,���쓌,3.2,��
2023/03/09,14:50,0.579,0.836,0.508,1.071,0.746,0.324,0.590,0.557,���쓌,2.6,��
2023/03/09,15:00,0.579,0.824,0.509,1.073,0.746,0.326,0.589,0.558,�쓌,3.2,��
2023/03/09,15:10,0.581,0.833,0.507,1.071,0.745,0.329,0.589,0.557,�쓌,3.1,��
2023/03/09,15:20,0.578,0.843,0.508,1.072,0.745,0.327,0.589,0.557,�쓌,3.8,��
2023/03/09,15:30,0.578,0.840,0.508,1.072,0.745,0.326,0.589,0.556,�쓌,4.3,��
2023/03/09,15:40,0.579,0.834,0.507,1.071,0.745,0.327,0.591,0.556,�쓌,3.9,��
2023/03/09,15:50,0.579,0.837,0.508,1.074,0.747,0.329,0.588,0.556,�쓌,4.5,��
2023/03/09,16:00,0.578,0.840,0.508,1.073,0.744,0.329,0.589,0.556,�쓌,5.6,��
2023/03/09,16:10,0.577,0.841,0.508,1.073,0.745,0.328,0.591,0.556,��쓌,6.9,��
2023/03/09,16:20,0.578,0.842,0.508,1.073,0.743,0.328,0.589,0.556,��쓌,7.4,��
2023/03/09,16:30,0.579,0.845,0.509,1.072,0.744,0.329,0.590,0.556,��쓌,9.4,��
2023/03/09,16:40,0.580,0.846,0.507,1.072,0.745,0.329,0.590,0.558,��쓌,9.4,��
2023/03/09,16:50,0.579,0.844,0.508,1.074,0.744,0.329,0.589,0.556,��쓌,9.0,��
2023/03/09,17:00,0.580,0.843,0.508,1.074,0.744,0.329,0.589,0.557,��,9.0,��
2023/03/09,17:10,0.578,0.844,0.509,1.071,0.745,0.329,0.591,0.559,��,8.9,��
2023/03/09,17:20,0.578,0.843,0.509,1.069,0.744,0.329,0.590,0.560,��,8.0,��
2023/03/09,17:30,0.579,0.844,0.510,1.070,0.744,0.328,0.589,0.560,��쓌,9.1,��
2023/03/09,17:40,0.580,0.845,0.509,1.072,0.745,0.330,0.592,0.559,��,7.7,��
2023/03/09,17:50,0.581,0.845,0.510,1.070,0.746,0.329,0.590,0.558,��,7.9,��
2023/03/09,18:00,0.583,0.847,0.511,1.071,0.745,0.328,0.592,0.558,��,7.9,��
2023/03/09,18:10,0.581,0.846,0.510,1.070,0.746,0.329,0.590,0.560,��,6.9,��
2023/03/09,18:20,0.582,0.849,0.511,1.072,0.747,0.330,0.590,0.559,��,7.1,��
2023/03/09,18:30,0.582,0.846,0.512,1.071,0.748,0.329,0.592,0.560,��,6.3,��
2023/03/09,18:40,0.582,0.847,0.512,1.070,0.747,0.330,0.591,0.559,��,6.5,��
2023/03/09,18:50,0.582,0.848,0.508,1.074,0.748,0.329,0.592,0.558,��,6.4,��
2023/03/09,19:00,0.582,0.847,0.509,1.071,0.747,0.330,0.590,0.558,��,5.6,��
2023/03/09,19:10,0.581,0.847,0.509,1.072,0.747,0.330,0.590,0.559,��,5.7,��
2023/03/09,19:20,0.582,0.848,0.508,1.070,0.747,0.329,0.591,0.559,��,4.1,��
2023/03/09,19:30,0.581,0.846,0.509,1.069,0.746,0.329,0.590,0.558,��,3.7,��
2023/03/09,19:40,0.580,0.847,0.511,1.070,0.746,0.328,0.591,0.560,��,3.0,��
2023/03/09,19:50,0.580,0.846,0.511,1.070,0.747,0.329,0.592,0.560,��,2.8,��
2023/03/09,20:00,0.582,0.846,0.509,1.072,0.748,0.328,0.590,0.558,��,3.1,��
2023/03/09,20:10,0.580,0.847,0.510,1.069,0.750,0.329,0.590,0.559,��,2.3,��
2023/03/09,20:20,0.581,0.848,0.509,1.070,0.747,0.329,0.592,0.557,��쐼,2.3,��
2023/03/09,20:30,0.579,0.848,0.511,1.072,0.749,0.329,0.591,0.559,�쐼,1.5,��
2023/03/09,20:40,0.580,0.847,0.509,1.070,0.748,0.329,0.591,0.558,��쐼,0.8,��
2023/03/09,20:50,0.581,0.846,0.510,1.072,0.746,0.329,0.591,0.558,-,CALM,��
2023/03/09,21:00,0.580,0.845,0.509,1.070,0.747,0.328,0.592,0.558,�k,0.6,��
2023/03/09,21:10,0.579,0.846,0.510,1.072,0.747,0.328,0.590,0.557,�k��,0.6,��
2023/03/09,21:20,0.581,0.845,0.510,1.071,0.747,0.328,0.589,0.558,�k�k��,1.2,��
2023/03/09,21:30,0.582,0.848,0.509,1.071,0.747,0.328,0.592,0.559,�k�k��,2.9,��
2023/03/09,21:40,0.581,0.849,0.509,1.071,0.746,0.327,0.590,0.558,�k�k��,2.5,��
2023/03/09,21:50,0.580,0.845,0.510,1.072,0.746,0.329,0.592,0.559,�k,2.6,��
2023/03/09,22:00,0.579,0.848,0.510,1.069,0.748,0.330,0.592,0.557,�k,2.2,��
2023/03/09,22:10,0.580,0.849,0.511,1.069,0.747,0.328,0.591,0.556,�k,3.3,��
2023/03/09,22:20,0.579,0.845,0.510,1.071,0.746,0.329,0.592,0.558,�k,4.3,��
2023/03/09,22:30,0.579,0.845,0.510,1.072,0.746,0.327,0.590,0.559,�k�k��,3.5,��
2023/03/09,22:40,0.579,0.846,0.511,1.071,0.749,0.328,0.591,0.558,�k�k��,2.3,��
2023/03/09,22:50,0.579,0.845,0.511,1.074,0.749,0.328,0.590,0.558,�k,1.8,��
2023/03/09,23:00,0.579,0.845,0.509,1.073,0.748,0.329,0.591,0.558,�k�k��,2.2,��
2023/03/09,23:10,0.578,0.847,0.509,1.071,0.747,0.328,0.591,0.558,�k�k��,3.3,��
2023/03/09,23:20,0.579,0.844,0.510,1.070,0.746,0.330,0.590,0.558,�k,4.4,��
2023/03/09,23:30,0.580,0.844,0.510,1.070,0.746,0.328,0.591,0.560,�k�k��,4.1,��
2023/03/09,23:40,0.580,0.845,0.511,1.068,0.747,0.329,0.590,0.559,�k,3.9,��
2023/03/09,23:50,0.580,0.846,0.509,1.073,0.746,0.329,0.590,0.559,�k,3.3,��
